03-03-2023, 00:00:09,     60,    0.1,    2.0,   0.00,   0.00, 1023.1,   72.8, -999.0
03-03-2023, 00:00:19,     61,    0.0,    2.0,   0.00,   0.00, 1023.1,   72.6, -999.0
03-03-2023, 00:00:29,     60,    0.0,    2.0,   0.00,   0.00, 1023.0,   72.6, -999.0
03-03-2023, 00:00:39,     60,    0.0,    2.1,   0.00,   0.00, 1023.0,   72.6, -999.0
03-03-2023, 00:00:49,     61,    0.0,    2.1,   0.00,   0.00, 1023.0,   72.6, -999.0
03-03-2023, 00:00:59,     61,    0.0,    2.1,   0.00,   0.00, 1023.0,   72.7, -999.0
03-03-2023, 00:01:09,     61,    0.0,    2.1,   0.00,   0.00, 1023.0,   72.7, -999.0
03-03-2023, 00:01:19,     48,    0.9,    2.2,   0.00,   0.00, 1023.1,   72.9, -999.0
03-03-2023, 00:01:29,     53,    2.9,    2.2,   0.00,   0.00, 1023.1,   73.0, -999.0
03-03-2023, 00:01:39,    344,    2.1,    2.1,   0.00,   0.00, 1023.2,   72.7, -999.0
03-03-2023, 00:01:49,     52,    0.4,    2.1,   0.00,   0.00, 1023.1,   72.5, -999.0
03-03-2023, 00:01:59,     52,    0.4,    2.1,   0.00,   0.00, 1023.1,   72.3, -999.0
03-03-2023, 00:02:09,     52,    0.0,    2.0,   0.00,   0.00, 1023.0,   72.0, -999.0
03-03-2023, 00:02:19,     66,    0.4,    2.1,   0.00,   0.00, 1023.1,   72.4, -999.0
03-03-2023, 00:02:29,     64,    0.5,    2.1,   0.00,   0.00, 1023.1,   72.4, -999.0
03-03-2023, 00:02:39,     46,    0.6,    2.1,   0.00,   0.00, 1023.1,   72.5, -999.0
03-03-2023, 00:02:49,      4,    1.5,    2.1,   0.00,   0.00, 1023.1,   72.6, -999.0
03-03-2023, 00:02:59,      9,    1.4,    2.1,   0.00,   0.00, 1023.1,   72.4, -999.0
03-03-2023, 00:03:09,      9,    0.0,    1.9,   0.00,   0.00, 1023.0,   72.2, -999.0
03-03-2023, 00:03:19,     12,    0.0,    2.0,   0.00,   0.00, 1023.0,   72.1, -999.0
03-03-2023, 00:03:29,     12,    0.0,    2.1,   0.00,   0.00, 1023.0,   72.3, -999.0
03-03-2023, 00:03:39,     13,    0.0,    2.1,   0.00,   0.00, 1023.0,   72.3, -999.0
03-03-2023, 00:03:49,     13,    0.0,    2.1,   0.00,   0.00, 1023.0,   72.4, -999.0
03-03-2023, 00:03:59,     49,    0.0,    2.2,   0.00,   0.00, 1023.0,   72.5, -999.0
03-03-2023, 00:04:09,     41,    1.1,    2.2,   0.00,   0.00, 1023.1,   72.7, -999.0
03-03-2023, 00:04:19,    342,    0.8,    2.2,   0.00,   0.00, 1023.1,   72.5, -999.0
03-03-2023, 00:04:29,    345,    0.3,    2.2,   0.00,   0.00, 1023.1,   72.4, -999.0
03-03-2023, 00:04:39,    347,    0.2,    2.1,   0.00,   0.00, 1023.1,   72.3, -999.0
03-03-2023, 00:04:49,     24,    2.1,    2.2,   0.00,   0.00, 1023.1,   72.3, -999.0
03-03-2023, 00:04:59,     17,    0.5,    1.9,   0.00,   0.00, 1023.1,   72.2, -999.0
03-03-2023, 00:05:09,      8,    0.5,    2.0,   0.00,   0.00, 1023.1,   72.2, -999.0
03-03-2023, 00:05:19,     43,    1.0,    2.0,   0.00,   0.00, 1023.1,   72.5, -999.0
03-03-2023, 00:05:29,      0,    0.7,    1.9,   0.00,   0.00, 1023.1,   72.5, -999.0
03-03-2023, 00:05:39,      0,    0.0,    1.9,   0.00,   0.00, 1023.0,   72.2, -999.0
03-03-2023, 00:05:48,      0,    0.0,    1.9,   0.00,   0.00, 1023.0,   72.2, -999.0
03-03-2023, 00:05:59,      0,    0.0,    2.0,   0.00,   0.00, 1023.0,   72.3, -999.0
03-03-2023, 00:06:09,    357,    0.2,    2.0,   0.00,   0.00, 1023.1,   72.6, -999.0
03-03-2023, 00:06:19,    353,    0.5,    2.0,   0.00,   0.00, 1023.0,   72.6, -999.0
03-03-2023, 00:06:28,    358,    0.0,    1.9,   0.00,   0.00, 1023.0,   72.5, -999.0
03-03-2023, 00:06:39,    358,    0.0,    2.0,   0.00,   0.00, 1023.1,   72.5, -999.0
03-03-2023, 00:06:49,    358,    0.0,    1.9,   0.00,   0.00, 1023.1,   72.7, -999.0
03-03-2023, 00:06:58,    358,    0.0,    1.9,   0.00,   0.00, 1023.0,   72.8, -999.0
03-03-2023, 00:07:08,    346,    0.7,    2.0,   0.00,   0.00, 1023.0,   72.9, -999.0
03-03-2023, 00:07:19,    349,    0.3,    2.0,   0.00,   0.00, 1023.0,   72.9, -999.0
03-03-2023, 00:07:29,    351,    0.0,    1.8,   0.00,   0.00, 1023.0,   72.6, -999.0
03-03-2023, 00:07:38,    337,    0.0,    1.9,   0.00,   0.00, 1023.0,   72.6, -999.0
03-03-2023, 00:07:48,    337,    0.0,    2.0,   0.00,   0.00, 1023.0,   72.4, -999.0
03-03-2023, 00:07:59,    331,    1.5,    2.0,   0.00,   0.00, 1023.0,   72.7, -999.0
03-03-2023, 00:08:08,     23,    0.8,    2.1,   0.00,   0.00, 1023.1,   72.8, -999.0
03-03-2023, 00:08:18,     55,    0.3,    1.9,   0.00,   0.00, 1023.1,   72.6, -999.0
03-03-2023, 00:08:28,     18,    1.4,    2.1,   0.00,   0.00, 1023.1,   73.0, -999.0
03-03-2023, 00:08:39,     51,    1.5,    2.0,   0.00,   0.00, 1023.1,   72.9, -999.0
03-03-2023, 00:08:48,     46,    1.9,    2.0,   0.00,   0.00, 1023.1,   72.9, -999.0
03-03-2023, 00:08:58,     29,    1.0,    2.0,   0.00,   0.00, 1023.1,   72.9, -999.0
03-03-2023, 00:09:09,      0,    0.9,    2.0,   0.00,   0.00, 1023.1,   72.9, -999.0
03-03-2023, 00:09:18,      0,    0.1,    2.0,   0.00,   0.00, 1023.1,   72.8, -999.0
03-03-2023, 00:09:28,      0,    0.0,    1.9,   0.00,   0.00, 1023.0,   72.9, -999.0
03-03-2023, 00:09:38,      1,    0.0,    2.0,   0.00,   0.00, 1023.0,   72.9, -999.0
03-03-2023, 00:09:48,      0,    0.0,    2.0,   0.00,   0.00, 1023.0,   72.8, -999.0
03-03-2023, 00:09:58,      0,    0.1,    2.0,   0.00,   0.00, 1023.1,   72.9, -999.0
03-03-2023, 00:10:08,      0,    0.2,    2.0,   0.00,   0.00, 1023.1,   72.9, -999.0
03-03-2023, 00:10:18,     12,    0.3,    2.1,   0.00,   0.00, 1023.2,   73.1, -999.0
03-03-2023, 00:10:28,     13,    0.0,    2.1,   0.00,   0.00, 1023.1,   72.7, -999.0
03-03-2023, 00:10:38,     13,    0.0,    2.1,   0.00,   0.00, 1023.0,   72.7, -999.0
03-03-2023, 00:10:48,     13,    0.0,    2.1,   0.00,   0.00, 1023.1,   72.6, -999.0
03-03-2023, 00:10:58,     28,    0.6,    2.1,   0.00,   0.00, 1023.2,   72.9, -999.0
03-03-2023, 00:11:08,     33,    0.2,    2.2,   0.00,   0.00, 1023.2,   72.7, -999.0
03-03-2023, 00:11:18,     48,    0.5,    2.0,   0.00,   0.00, 1023.1,   72.6, -999.0
03-03-2023, 00:11:28,      4,    1.5,    2.2,   0.00,   0.00, 1023.2,   72.6, -999.0
03-03-2023, 00:11:38,     19,    0.9,    2.0,   0.00,   0.00, 1023.2,   72.6, -999.0
03-03-2023, 00:11:48,     19,    0.4,    2.1,   0.00,   0.00, 1023.2,   72.4, -999.0
03-03-2023, 00:11:58,     21,    0.6,    2.1,   0.00,   0.00, 1023.2,   72.5, -999.0
03-03-2023, 00:12:08,     21,    0.0,    1.9,   0.00,   0.00, 1023.1,   72.2, -999.0
03-03-2023, 00:12:18,     20,    0.4,    2.0,   0.00,   0.00, 1023.1,   72.4, -999.0
03-03-2023, 00:12:28,     20,    0.0,    2.1,   0.00,   0.00, 1023.1,   72.1, -999.0
03-03-2023, 00:12:38,     20,    0.0,    2.0,   0.00,   0.00, 1023.1,   72.3, -999.0
03-03-2023, 00:12:48,     20,    0.0,    2.0,   0.00,   0.00, 1023.1,   72.4, -999.0
03-03-2023, 00:12:58,     45,    0.0,    2.0,   0.00,   0.00, 1023.1,   72.4, -999.0
03-03-2023, 00:13:08,     51,    0.2,    2.1,   0.00,   0.00, 1023.2,   72.6, -999.0
03-03-2023, 00:13:18,     51,    0.0,    2.1,   0.00,   0.00, 1023.1,   72.5, -999.0
03-03-2023, 00:13:28,     51,    0.0,    2.1,   0.00,   0.00, 1023.1,   72.2, -999.0
03-03-2023, 00:13:38,     51,    0.0,    2.1,   0.00,   0.00, 1023.0,   72.2, -999.0
03-03-2023, 00:13:48,     51,    0.0,    2.0,   0.00,   0.00, 1023.1,   72.2, -999.0
03-03-2023, 00:13:58,     51,    0.0,    2.1,   0.00,   0.00, 1023.1,   72.3, -999.0
03-03-2023, 00:14:08,     51,    0.1,    2.1,   0.00,   0.00, 1023.1,   72.2, -999.0
03-03-2023, 00:14:18,     51,    0.1,    2.1,   0.00,   0.00, 1023.2,   72.1, -999.0
03-03-2023, 00:14:28,     52,    1.4,    2.0,   0.00,   0.00, 1023.2,   72.3, -999.0
03-03-2023, 00:14:38,      0,    1.2,    2.1,   0.00,   0.00, 1023.2,   72.3, -999.0
03-03-2023, 00:14:48,    333,    0.8,    2.1,   0.00,   0.00, 1023.2,   72.2, -999.0
03-03-2023, 00:14:58,    340,    0.2,    1.9,   0.00,   0.00, 1023.2,   72.1, -999.0
03-03-2023, 00:15:08,    340,    0.1,    1.9,   0.00,   0.00, 1023.2,   72.2, -999.0
03-03-2023, 00:15:18,     23,    0.7,    2.0,   0.00,   0.00, 1023.2,   72.4, -999.0
03-03-2023, 00:15:28,     40,    0.5,    2.0,   0.00,   0.00, 1023.2,   72.4, -999.0
03-03-2023, 00:15:38,     40,    0.8,    2.0,   0.00,   0.00, 1023.2,   72.3, -999.0
03-03-2023, 00:15:48,     18,    0.8,    2.0,   0.00,   0.00, 1023.3,   72.4, -999.0
03-03-2023, 00:15:57,     17,    0.3,    1.8,   0.00,   0.00, 1023.2,   72.3, -999.0
03-03-2023, 00:16:08,     42,    0.8,    1.9,   0.00,   0.00, 1023.2,   72.1, -999.0
03-03-2023, 00:16:18,     22,    1.1,    2.0,   0.00,   0.00, 1023.3,   72.4, -999.0
03-03-2023, 00:16:27,     22,    3.9,    2.0,   0.00,   0.00, 1023.3,   72.3, -999.0
03-03-2023, 00:16:37,     28,    3.0,    2.0,   0.00,   0.00, 1023.2,   72.1, -999.0
03-03-2023, 00:16:48,     13,    2.4,    2.0,   0.00,   0.00, 1023.3,   72.1, -999.0
03-03-2023, 00:16:58,     17,    2.4,    2.0,   0.00,   0.00, 1023.3,   72.0, -999.0
03-03-2023, 00:17:07,      0,    1.6,    1.9,   0.00,   0.00, 1023.3,   72.1, -999.0
03-03-2023, 00:17:18,     13,    1.1,    2.0,   0.00,   0.00, 1023.3,   72.2, -999.0
03-03-2023, 00:17:28,     18,    0.7,    2.0,   0.00,   0.00, 1023.3,   72.4, -999.0
03-03-2023, 00:17:37,     17,    0.1,    2.1,   0.00,   0.00, 1023.2,   72.2, -999.0
03-03-2023, 00:17:47,     17,    0.0,    2.0,   0.00,   0.00, 1023.1,   72.1, -999.0
03-03-2023, 00:17:58,     17,    0.0,    2.0,   0.00,   0.00, 1023.2,   72.1, -999.0
03-03-2023, 00:18:07,     21,    0.2,    2.1,   0.00,   0.00, 1023.2,   72.3, -999.0
03-03-2023, 00:18:17,     21,    0.1,    2.1,   0.00,   0.00, 1023.2,   72.2, -999.0
03-03-2023, 00:18:27,     21,    0.0,    2.1,   0.00,   0.00, 1023.2,   72.0, -999.0
03-03-2023, 00:18:38,     21,    0.0,    2.1,   0.00,   0.00, 1023.1,   72.0, -999.0
03-03-2023, 00:18:47,      0,    0.0,    2.1,   0.00,   0.00, 1023.2,   72.0, -999.0
03-03-2023, 00:18:57,      2,    0.0,    2.0,   0.00,   0.00, 1023.1,   71.9, -999.0
03-03-2023, 00:19:07,      0,    0.0,    2.1,   0.00,   0.00, 1023.1,   71.8, -999.0
03-03-2023, 00:19:17,      1,    0.0,    2.1,   0.00,   0.00, 1023.1,   72.0, -999.0
03-03-2023, 00:19:27,      0,    0.0,    2.1,   0.00,   0.00, 1023.1,   72.1, -999.0
03-03-2023, 00:19:37,      0,    0.0,    2.1,   0.00,   0.00, 1023.1,   72.0, -999.0
03-03-2023, 00:19:47,      0,    0.0,    2.1,   0.00,   0.00, 1023.1,   72.0, -999.0
03-03-2023, 00:19:57,     47,    0.0,    2.1,   0.00,   0.00, 1023.1,   71.9, -999.0
03-03-2023, 00:20:07,     46,    0.0,    2.2,   0.00,   0.00, 1023.2,   72.0, -999.0
03-03-2023, 00:20:17,     47,    0.0,    2.1,   0.00,   0.00, 1023.1,   71.8, -999.0
03-03-2023, 00:20:27,     52,    0.0,    2.1,   0.00,   0.00, 1023.2,   71.7, -999.0
03-03-2023, 00:20:37,     49,    1.0,    2.2,   0.00,   0.00, 1023.3,   71.9, -999.0
03-03-2023, 00:20:47,     49,    0.0,    2.2,   0.00,   0.00, 1023.2,   71.6, -999.0
03-03-2023, 00:20:57,     49,    0.0,    2.1,   0.00,   0.00, 1023.1,   71.4, -999.0
03-03-2023, 00:21:07,     49,    0.0,    2.1,   0.00,   0.00, 1023.2,   71.4, -999.0
03-03-2023, 00:21:17,     49,    0.0,    2.1,   0.00,   0.00, 1023.2,   71.5, -999.0
03-03-2023, 00:21:27,     49,    0.0,    2.2,   0.00,   0.00, 1023.1,   71.6, -999.0
03-03-2023, 00:21:37,     49,    0.0,    2.2,   0.00,   0.00, 1023.2,   71.6, -999.0
03-03-2023, 00:21:47,     49,    0.2,    2.2,   0.00,   0.00, 1023.2,   71.8, -999.0
03-03-2023, 00:21:57,     49,    0.8,    2.3,   0.00,   0.00, 1023.3,   71.9, -999.0
03-03-2023, 00:22:07,     50,    0.2,    2.2,   0.00,   0.00, 1023.2,   71.6, -999.0
03-03-2023, 00:22:17,     27,    0.7,    2.3,   0.00,   0.00, 1023.3,   71.5, -999.0
03-03-2023, 00:22:27,     69,    0.3,    2.2,   0.00,   0.00, 1023.3,   71.4, -999.0
03-03-2023, 00:22:37,     69,    0.1,    2.2,   0.00,   0.00, 1023.2,   71.1, -999.0
03-03-2023, 00:22:47,     69,    0.0,    2.1,   0.00,   0.00, 1023.1,   71.1, -999.0
03-03-2023, 00:22:57,     69,    0.0,    2.1,   0.00,   0.00, 1023.2,   71.1, -999.0
03-03-2023, 00:23:07,     70,    0.0,    2.2,   0.00,   0.00, 1023.2,   71.2, -999.0
03-03-2023, 00:23:17,     69,    0.0,    2.2,   0.00,   0.00, 1023.1,   71.2, -999.0
03-03-2023, 00:23:27,     68,    0.2,    2.2,   0.00,   0.00, 1023.2,   71.4, -999.0
03-03-2023, 00:23:37,     68,    0.1,    2.1,   0.00,   0.00, 1023.2,   71.2, -999.0
03-03-2023, 00:23:47,      8,    1.6,    2.2,   0.00,   0.00, 1023.3,   71.4, -999.0
03-03-2023, 00:23:57,     28,    3.0,    2.1,   0.00,   0.00, 1023.3,   71.4, -999.0
03-03-2023, 00:24:07,      0,    2.0,    2.2,   0.00,   0.00, 1023.3,   71.2, -999.0
03-03-2023, 00:24:17,      0,    1.2,    2.1,   0.00,   0.00, 1023.2,   71.0, -999.0
03-03-2023, 00:24:27,      5,    0.4,    2.0,   0.00,   0.00, 1023.2,   71.0, -999.0
03-03-2023, 00:24:37,      6,    0.7,    2.0,   0.00,   0.00, 1023.3,   71.3, -999.0
03-03-2023, 00:24:47,     27,    1.0,    2.1,   0.00,   0.00, 1023.3,   71.3, -999.0
03-03-2023, 00:24:56,     29,    1.3,    2.1,   0.00,   0.00, 1023.3,   71.5, -999.0
03-03-2023, 00:25:07,     29,    0.4,    2.0,   0.00,   0.00, 1023.2,   71.4, -999.0
03-03-2023, 00:25:17,     29,    0.5,    2.0,   0.00,   0.00, 1023.3,   71.5, -999.0
03-03-2023, 00:25:27,     45,    0.7,    2.0,   0.00,   0.00, 1023.3,   71.7, -999.0
03-03-2023, 00:25:36,      0,    2.7,    2.1,   0.00,   0.00, 1023.3,   71.9, -999.0
03-03-2023, 00:25:47,      0,    2.2,    2.1,   0.00,   0.00, 1023.3,   71.7, -999.0
03-03-2023, 00:25:57,     16,    0.9,    2.1,   0.00,   0.00, 1023.3,   71.8, -999.0
03-03-2023, 00:26:06,     73,    1.9,    2.1,   0.00,   0.00, 1023.3,   71.9, -999.0
03-03-2023, 00:26:17,     38,    2.0,    2.1,   0.00,   0.00, 1023.3,   71.9, -999.0
03-03-2023, 00:26:27,     50,    2.1,    2.1,   0.00,   0.00, 1023.3,   71.9, -999.0
03-03-2023, 00:26:36,     56,    2.0,    2.1,   0.00,   0.00, 1023.3,   71.8, -999.0
03-03-2023, 00:26:46,     54,    0.8,    2.1,   0.00,   0.00, 1023.3,   71.9, -999.0
03-03-2023, 00:26:57,     55,    1.5,    2.1,   0.00,   0.00, 1023.3,   71.7, -999.0
03-03-2023, 00:27:07,     53,    1.6,    2.1,   0.00,   0.00, 1023.3,   71.9, -999.0
03-03-2023, 00:27:16,     26,    1.9,    2.1,   0.00,   0.00, 1023.3,   71.8, -999.0
03-03-2023, 00:27:26,     26,    0.3,    2.1,   0.00,   0.00, 1023.2,   71.7, -999.0
03-03-2023, 00:27:37,     26,    0.0,    2.0,   0.00,   0.00, 1023.2,   71.5, -999.0
03-03-2023, 00:27:46,     26,    0.4,    2.1,   0.00,   0.00, 1023.3,   71.8, -999.0
03-03-2023, 00:27:56,     26,    0.0,    2.1,   0.00,   0.00, 1023.1,   71.5, -999.0
03-03-2023, 00:28:06,     26,    0.0,    2.1,   0.00,   0.00, 1023.2,   71.6, -999.0
03-03-2023, 00:28:16,     26,    0.0,    2.0,   0.00,   0.00, 1023.2,   71.5, -999.0
03-03-2023, 00:28:26,     26,    0.0,    2.1,   0.00,   0.00, 1023.2,   71.6, -999.0
03-03-2023, 00:28:36,     26,    0.1,    2.2,   0.00,   0.00, 1023.2,   71.7, -999.0
03-03-2023, 00:28:47,     27,    0.0,    2.2,   0.00,   0.00, 1023.2,   71.6, -999.0
03-03-2023, 00:28:56,     26,    0.0,    2.2,   0.00,   0.00, 1023.2,   71.5, -999.0
03-03-2023, 00:29:06,     26,    0.7,    2.3,   0.00,   0.00, 1023.3,   71.8, -999.0
03-03-2023, 00:29:16,     26,    0.3,    2.3,   0.00,   0.00, 1023.3,   71.5, -999.0
03-03-2023, 00:29:26,     26,    0.0,    2.2,   0.00,   0.00, 1023.2,   71.1, -999.0
03-03-2023, 00:29:36,     26,    0.0,    2.2,   0.00,   0.00, 1023.2,   71.3, -999.0
03-03-2023, 00:29:46,     26,    0.2,    2.2,   0.00,   0.00, 1023.3,   71.3, -999.0
03-03-2023, 00:29:56,     26,    0.0,    2.2,   0.00,   0.00, 1023.2,   71.2, -999.0
03-03-2023, 00:30:06,     26,    0.0,    2.2,   0.00,   0.00, 1023.2,   71.2, -999.0
03-03-2023, 00:30:16,     26,    0.0,    2.1,   0.00,   0.00, 1023.2,   71.1, -999.0
03-03-2023, 00:30:26,     26,    0.0,    2.1,   0.00,   0.00, 1023.2,   71.0, -999.0
03-03-2023, 00:30:36,     26,    0.0,    2.1,   0.00,   0.00, 1023.2,   71.0, -999.0
03-03-2023, 00:30:46,     37,    0.6,    2.1,   0.00,   0.00, 1023.3,   71.3, -999.0
03-03-2023, 00:30:56,     35,    0.2,    2.2,   0.00,   0.00, 1023.3,   71.3, -999.0
03-03-2023, 00:31:06,     36,    0.0,    2.1,   0.00,   0.00, 1023.2,   71.2, -999.0
03-03-2023, 00:31:16,     35,    0.3,    2.2,   0.00,   0.00, 1023.3,   71.4, -999.0
03-03-2023, 00:31:26,     53,    0.1,    2.0,   0.00,   0.00, 1023.2,   71.2, -999.0
03-03-2023, 00:31:36,     21,    0.7,    2.0,   0.00,   0.00, 1023.2,   71.1, -999.0
03-03-2023, 00:31:46,     20,    0.7,    2.2,   0.00,   0.00, 1023.3,   71.2, -999.0
03-03-2023, 00:31:56,     25,    0.4,    2.1,   0.00,   0.00, 1023.3,   71.0, -999.0
03-03-2023, 00:32:06,      5,    1.2,    2.1,   0.00,   0.00, 1023.3,   71.1, -999.0
03-03-2023, 00:32:16,      5,    1.2,    2.1,   0.00,   0.00, 1023.3,   71.1, -999.0
03-03-2023, 00:32:26,      5,    0.0,    2.0,   0.00,   0.00, 1023.2,   70.8, -999.0
03-03-2023, 00:32:36,      7,    0.2,    2.1,   0.00,   0.00, 1023.3,   71.0, -999.0
03-03-2023, 00:32:46,      7,    0.1,    2.1,   0.00,   0.00, 1023.3,   71.0, -999.0
03-03-2023, 00:32:56,     51,    0.7,    2.1,   0.00,   0.00, 1023.4,   71.4, -999.0
03-03-2023, 00:33:06,     52,    0.6,    2.0,   0.00,   0.00, 1023.3,   71.2, -999.0
03-03-2023, 00:33:16,     51,    0.5,    2.0,   0.00,   0.00, 1023.3,   71.1, -999.0
03-03-2023, 00:33:26,     52,    0.0,    2.0,   0.00,   0.00, 1023.2,   71.0, -999.0
03-03-2023, 00:33:36,     77,    1.3,    2.1,   0.00,   0.00, 1023.3,   71.5, -999.0
03-03-2023, 00:33:46,     77,    0.3,    2.0,   0.00,   0.00, 1023.3,   71.2, -999.0
03-03-2023, 00:33:56,     75,    0.3,    2.1,   0.00,   0.00, 1023.3,   71.4, -999.0
03-03-2023, 00:34:06,     74,    0.0,    2.0,   0.00,   0.00, 1023.2,   71.1, -999.0
03-03-2023, 00:34:16,     75,    0.0,    2.0,   0.00,   0.00, 1023.2,   71.1, -999.0
03-03-2023, 00:34:26,     75,    0.6,    1.9,   0.00,   0.00, 1023.3,   71.4, -999.0
03-03-2023, 00:34:36,     45,    1.3,    2.1,   0.00,   0.00, 1023.4,   71.4, -999.0
03-03-2023, 00:34:46,     45,    0.4,    2.1,   0.00,   0.00, 1023.4,   71.4, -999.0
03-03-2023, 00:34:56,     45,    0.0,    2.0,   0.00,   0.00, 1023.3,   71.2, -999.0
03-03-2023, 00:35:06,     45,    0.0,    2.0,   0.00,   0.00, 1023.3,   71.1, -999.0
03-03-2023, 00:35:16,     45,    0.0,    1.9,   0.00,   0.00, 1023.2,   71.1, -999.0
03-03-2023, 00:35:26,     45,    0.0,    2.0,   0.00,   0.00, 1023.3,   71.1, -999.0
03-03-2023, 00:35:36,     45,    0.0,    2.0,   0.00,   0.00, 1023.3,   71.1, -999.0
03-03-2023, 00:35:45,     45,    0.0,    1.9,   0.00,   0.00, 1023.2,   71.2, -999.0
03-03-2023, 00:35:56,     45,    0.0,    2.0,   0.00,   0.00, 1023.3,   71.2, -999.0
03-03-2023, 00:36:06,     45,    0.0,    2.1,   0.00,   0.00, 1023.3,   71.2, -999.0
03-03-2023, 00:36:15,     45,    0.0,    2.1,   0.00,   0.00, 1023.3,   71.3, -999.0
03-03-2023, 00:36:25,     54,    1.6,    2.1,   0.00,   0.00, 1023.4,   71.6, -999.0
03-03-2023, 00:36:36,     28,    1.8,    2.1,   0.00,   0.00, 1023.4,   71.6, -999.0
03-03-2023, 00:36:46,     48,    2.4,    2.1,   0.00,   0.00, 1023.4,   71.5, -999.0
03-03-2023, 00:36:55,     12,    2.0,    2.1,   0.00,   0.00, 1023.4,   71.3, -999.0
03-03-2023, 00:37:05,     39,    1.6,    2.1,   0.00,   0.00, 1023.4,   71.3, -999.0
03-03-2023, 00:37:16,     61,    2.3,    2.1,   0.00,   0.00, 1023.4,   71.4, -999.0
03-03-2023, 00:37:25,     35,    1.0,    2.1,   0.00,   0.00, 1023.4,   71.3, -999.0
03-03-2023, 00:37:35,     55,    1.4,    2.1,   0.00,   0.00, 1023.4,   71.3, -999.0
03-03-2023, 00:37:46,     81,    0.8,    2.1,   0.00,   0.00, 1023.4,   71.2, -999.0
03-03-2023, 00:37:55,     81,    0.1,    2.1,   0.00,   0.00, 1023.3,   71.3, -999.0
03-03-2023, 00:38:05,     81,    0.0,    2.1,   0.00,   0.00, 1023.3,   71.3, -999.0
03-03-2023, 00:38:15,     81,    0.0,    2.1,   0.00,   0.00, 1023.3,   71.1, -999.0
03-03-2023, 00:38:26,     80,    0.0,    2.1,   0.00,   0.00, 1023.3,   71.2, -999.0
03-03-2023, 00:38:35,     55,    0.2,    2.2,   0.00,   0.00, 1023.4,   71.3, -999.0
03-03-2023, 00:38:45,     55,    0.8,    2.3,   0.00,   0.00, 1023.4,   71.4, -999.0
03-03-2023, 00:38:55,     55,    0.4,    2.2,   0.00,   0.00, 1023.4,   71.2, -999.0
03-03-2023, 00:39:05,      4,    0.6,    2.1,   0.00,   0.00, 1023.4,   71.1, -999.0
03-03-2023, 00:39:15,     11,    1.8,    2.2,   0.00,   0.00, 1023.5,   71.1, -999.0
03-03-2023, 00:39:25,      0,    4.1,    2.2,   0.00,   0.00, 1023.4,   71.0, -999.0
03-03-2023, 00:39:35,    306,    1.4,    2.2,   0.00,   0.00, 1023.4,   71.0, -999.0
03-03-2023, 00:39:45,     64,    0.5,    2.1,   0.00,   0.00, 1023.4,   70.8, -999.0
03-03-2023, 00:39:55,      0,    0.6,    2.1,   0.00,   0.00, 1023.4,   70.8, -999.0
03-03-2023, 00:40:05,      9,    1.8,    2.0,   0.00,   0.00, 1023.4,   71.0, -999.0
03-03-2023, 00:40:15,     70,    1.9,    2.1,   0.00,   0.00, 1023.4,   70.9, -999.0
03-03-2023, 00:40:25,     47,    1.7,    2.1,   0.00,   0.00, 1023.4,   71.1, -999.0
03-03-2023, 00:40:35,     47,    0.4,    2.2,   0.00,   0.00, 1023.4,   71.1, -999.0
03-03-2023, 00:40:45,     66,    1.1,    2.2,   0.00,   0.00, 1023.4,   71.2, -999.0
03-03-2023, 00:40:55,     66,    0.1,    2.1,   0.00,   0.00, 1023.3,   70.9, -999.0
03-03-2023, 00:41:05,     66,    0.4,    2.2,   0.00,   0.00, 1023.4,   71.3, -999.0
03-03-2023, 00:41:15,     66,    0.0,    2.2,   0.00,   0.00, 1023.2,   70.7, -999.0
03-03-2023, 00:41:25,     68,    0.2,    2.2,   0.00,   0.00, 1023.3,   71.0, -999.0
03-03-2023, 00:41:35,     68,    0.1,    2.2,   0.00,   0.00, 1023.2,   70.8, -999.0
03-03-2023, 00:41:45,     68,    0.0,    2.3,   0.00,   0.00, 1023.3,   70.8, -999.0
03-03-2023, 00:41:55,     68,    0.0,    2.1,   0.00,   0.00, 1023.3,   70.8, -999.0
03-03-2023, 00:42:05,     52,    0.1,    2.2,   0.00,   0.00, 1023.3,   70.9, -999.0
03-03-2023, 00:42:15,     51,    0.2,    2.3,   0.00,   0.00, 1023.3,   70.8, -999.0
03-03-2023, 00:42:25,     52,    0.0,    2.2,   0.00,   0.00, 1023.3,   70.5, -999.0
03-03-2023, 00:42:35,     52,    0.0,    2.2,   0.00,   0.00, 1023.2,   70.5, -999.0
03-03-2023, 00:42:45,     51,    0.0,    2.2,   0.00,   0.00, 1023.3,   70.6, -999.0
03-03-2023, 00:42:55,     51,    0.0,    2.3,   0.00,   0.00, 1023.3,   70.6, -999.0
03-03-2023, 00:43:05,     52,    0.0,    2.2,   0.00,   0.00, 1023.2,   70.5, -999.0
03-03-2023, 00:43:15,     51,    0.0,    2.2,   0.00,   0.00, 1023.2,   70.5, -999.0
03-03-2023, 00:43:25,     51,    0.0,    2.3,   0.00,   0.00, 1023.2,   70.4, -999.0
03-03-2023, 00:43:35,     51,    0.0,    2.3,   0.00,   0.00, 1023.2,   70.4, -999.0
03-03-2023, 00:43:45,     52,    0.0,    2.3,   0.00,   0.00, 1023.3,   70.5, -999.0
03-03-2023, 00:43:55,     51,    0.0,    2.3,   0.00,   0.00, 1023.3,   70.4, -999.0
03-03-2023, 00:44:05,     51,    0.4,    2.4,   0.00,   0.00, 1023.4,   70.5, -999.0
03-03-2023, 00:44:15,     51,    0.0,    2.2,   0.00,   0.00, 1023.3,   70.0, -999.0
03-03-2023, 00:44:25,     51,    0.0,    2.2,   0.00,   0.00, 1023.2,   69.9, -999.0
03-03-2023, 00:44:35,     51,    0.0,    2.2,   0.00,   0.00, 1023.3,   69.8, -999.0
03-03-2023, 00:44:45,     38,    0.7,    2.2,   0.00,   0.00, 1023.3,   70.1, -999.0
03-03-2023, 00:44:55,     40,    1.4,    2.3,   0.00,   0.00, 1023.4,   70.4, -999.0
03-03-2023, 00:45:05,     40,    0.0,    2.2,   0.00,   0.00, 1023.3,   70.0, -999.0
03-03-2023, 00:45:14,     40,    0.0,    2.1,   0.00,   0.00, 1023.2,   70.0, -999.0
03-03-2023, 00:45:25,     40,    0.1,    2.2,   0.00,   0.00, 1023.3,   70.0, -999.0
03-03-2023, 00:45:35,     40,    0.3,    2.2,   0.00,   0.00, 1023.3,   70.1, -999.0
03-03-2023, 00:45:45,     40,    0.5,    2.3,   0.00,   0.00, 1023.3,   70.2, -999.0
03-03-2023, 00:45:54,     40,    0.1,    2.2,   0.00,   0.00, 1023.4,   70.3, -999.0
03-03-2023, 00:46:05,     43,    1.3,    2.3,   0.00,   0.00, 1023.4,   70.5, -999.0
03-03-2023, 00:46:15,     90,    2.2,    2.3,   0.00,   0.00, 1023.4,   70.3, -999.0
03-03-2023, 00:46:24,     53,    0.2,    2.3,   0.00,   0.00, 1023.4,   70.1, -999.0
03-03-2023, 00:46:34,     35,    0.9,    2.3,   0.00,   0.00, 1023.3,   70.2, -999.0
03-03-2023, 00:46:45,     34,    1.3,    2.3,   0.00,   0.00, 1023.4,   70.1, -999.0
03-03-2023, 00:46:54,     34,    0.5,    2.3,   0.00,   0.00, 1023.4,   70.1, -999.0